2019-096D

Last updated on Sun Jan 26 2020 00:02:03 GMT+0000 (Coordinated Universal Time)

1 44908U 19096D 20025.45826137 .00000032 00000-0 16555-3 0 9995 2 44908 82.5326 92.1064 0004203 253.3169 106.7440 12.40786906 3652
UTC large
Height (km)
Speed (km/s)
/
Latitude / Longitude
Inclination (degrees)
Orbital Period (minutes)
Azimuth
Elevation
Range (km)
Doppler Factor

Next 0 passes for location: London (51.5072 / 0.1276)

Sorry there are no passes over London.